Regional Weather Roundup
Issued by NWS

Home | Current Version | Previous Version | Graphics & Text | Print | Product List | Glossary On
Versions: 1 2 3 4 5 6 7 8 9 10 11 12 13 14 15 16 17 18 19 20 21 22 23 24 25 26 27
000
ASUS45 KBOI 241410
RWRID
WEATHER ROUNDUP FOR IDAHO
NATIONAL WEATHER SERVICE BOISE ID
800 AM MDT THU APR 24 2014

NOTE: "FAIR" INDICATES FEW OR NO CLOUDS BELOW 12000 FEET
WITH NO SIGNIFICANT WEATHER AND/OR OBSTRUCTIONS TO VISIBILITY

IDZ012-014-241500-
SOUTHWEST IDAHO


CITY           SKY/WX    TMP DP  RH WIND       PRES   REMARKS
BOISE          LGT RAIN  44  39  82 SE8       29.94R
CALDWELL       CLOUDY    45  34  65 E8        29.95R
MOUNTAIN HOME  DRIZZLE   43  42  95 NE6       29.95R
$$

IDZ016-017-241500-
SOUTHCENTRAL IDAHO


CITY           SKY/WX    TMP DP  RH WIND       PRES   REMARKS
BURLEY         CLOUDY    46  26  45 SW16G24   29.97R
JEROME         CLOUDY    45  31  58 E5        29.97S
TWIN FALLS     CLOUDY    50  30  46 S13G24    29.97R
$$

IDZ019>023-241500-
SOUTHEAST IDAHO


CITY           SKY/WX    TMP DP  RH WIND       PRES   REMARKS
IDAHO FALLS    CLOUDY    38  29  70 W3        29.98S
POCATELLO      PTSUNNY   47  23  38 S22       29.98S
REXBURG        CLOUDY    34  27  75 N3        29.98S
$$

IDZ006-010-011-018-031-032-241500-
CENTRAL IDAHO MOUNTAINS


CITY           SKY/WX    TMP DP  RH WIND       PRES   REMARKS
MCCALL         LGT SNOW  33  30  88 S8        29.88R VSB 1   WCI  26
HAILEY         CLOUDY    37  27  65 NW5       29.98S WCI  34
STANLEY          N/A     33  27  78 SE13G21   29.91S WCI  24
SALMON         CLOUDY    41  28  60 CALM      29.85S
CHALLIS        CLOUDY    43  23  45 S12       29.88S
$$

IDZ002-004-006-007-026-241500-
NORTHERN IDAHO


CITY           SKY/WX    TMP DP  RH WIND       PRES   REMARKS
LEWISTON       LGT RAIN  46  40  79 CALM      29.81R
LOWELL           N/A     40  39  97 N3        29.89R
COEUR D`ALENE  CLOUDY    41  37  87 SE3       29.78S
MULLAN PASS    SNOW      29  29 100 VRB3      29.73S VSB 1/4
$$



USA.gov is the U.S. government's official web portal to all federal, state and local government web resources and services.